STARLINK-11194, 60187

Orbit data source: Space-Track

STARLINK-11194, 60187 is a payload satellite owned by SpaceX/Seattle (US) in LEO that was launched on Wed, 03 Jul 2024 UTC via an FALCON 9 launch vehicle from the Air Force Eastern Test Range (AFETR). Payloads include a variety of satellites, spacecraft, and rockets equipped with specific instruments for various scientific and technological missions. These include communications satellites like Starlink; space stations such as the ISS; scientific satellites like the Hubble; Earth observation satellites from companies like Planet Labs, Umbra, and HawkEye 360; GPS; miniature CubeSats for education and research; and military/defense satellites.

Loading next visibility...
STARLINK-11194 details
Identifier
60187, 2024-124E
Orbit
LEO
Last TLE update18 hours ago
Origin
Flag of USSpaceX/Seattle (US)
ManufacturerSpaceX/Seattle
MissionOperational spacecraft
Bus & MotorSTARLINK V2M, Unknown motor
Mass730 kg wet, ~700 kg dry
Launch date (UTC)
2024-07-03 (6 months ago)
Launch vehicle
FALCON 9
Launch site
Air Force Eastern Test Range (AFETR)
Object type
Payload
Rocket body
Debris
Shape & HBRUnknown
Radar Cross SectionLarge (>1 m²)

Expand to show TLE details & history

TLE from 18 hours ago
0 STARLINK-11194
1 60187U 24124E   24355.82128266 -.00001351  00000-0 -62952-5 0  9990
2 60187  53.1589 189.0620 0000969  99.4666 260.6461 15.69708767 26824
Epoch: 2024-12-20T19:42Z
Definitive object data (Epoch: 2024-12-20T19:42:38.821Z)
Latitude-0.00008°
Longitude163.51889°
Altitude360.751 km
Speed7.694 km/s
True Right ascension12h 36m 14s
True Declination0° 00' 00"
Sunlit
Object was in daylight at TLE epoch
Visualization TLE readout
Latitude-23.11489°
Longitude-1.57465°
Altitude366.539 km
Speed7.689 km/s
Apparent Right ascension01h 05m 14s
Apparent Declination-31° 24' 19"
Sunlit
Object is in daylight
Visualization observer readout
Local Sidereal Time12:26:21
Azimuth314.197° NW
Elevation-78.404°
Doppler factor1
Orbital elements
Apogee altitude360.644 km
Perigee altitude359.338 km
Semi-major axis6,738.128 km
Eccentricity0.0000969
Inclination53.1589°
RAAN189.062°
Arg. of periapsis99.4666°
True anomaly260.63514°
Mean anomaly260.6461°
Eccentric anomaly260.64062°
Mean motion3.92405 °/min
BSTAR-0.0000062952
Orbital period91.74 mins
Loading maneuver chart data...
Loading historical data...
Loading historical data...
Loading historical data...
Loading historical data...
Loading historical data...
Loading historical data...
Loading historical data...

STARLINK-11194 Visibility forecast

Observer location: undefined°, undefined

Span
Click to sort rows by Start time (UTC) header in descending order
Start Az.
Max El. time (UTC)
Max El. Az.
Max El.
End time (UTC)
End Az.
5 mins2024-12-21 15:45:23.659Z225.328° WSW2024-12-21 15:48:23.659Z64.594° ENE40.196°2024-12-21 15:50:23.659Z52.349° ENE
5 mins2024-12-21 22:10:23.659Z323.839° NNW2024-12-21 22:12:23.659Z18.95° NNE35.883°2024-12-21 22:15:23.659Z112.539° SE
|